• In Hungary
  • List of Countries
  • For 7 days
  • Water Temperature
  • Satellite Maps
  • Weather Map
  • News
  • Weather Widgets
  • user-avatar
    Login

    Hourly Weather Cieza

    Today, 22 June, Friday

    Time Temperature Precipitation Wind Pressure Humidity
    00:00 +24°C° 0 mm 0 mps 749 mmHg 49%
    01:00 +23°C° 0 mm 0 mps 748 mmHg 50%
    02:00 +23°C° 0 mm 0 mps 748 mmHg 51%
    03:00 +22°C° 0 mm 0 mps 748 mmHg 52%
    04:00 +23°C° 0 mm 0 mps 748 mmHg 50%
    05:00 +24°C° 0 mm 0 mps 748 mmHg 48%
    06:00 +25°C° 0 mm 0 mps 748 mmHg 40%
    07:00 +28°C° 0 mm 1 mps 748 mmHg 37%
    08:00 +30°C° 0 mm 1 mps 748 mmHg 34%
    09:00 +31°C° 0 mm 1 mps 748 mmHg 31%
    10:00 +32°C° 0 mm 2 mps 748 mmHg 29%
    11:00 +35°C° 0 mm 3 mps 748 mmHg 27%
    12:00 +35°C° 0 mm 4 mps 749 mmHg 26%
    13:00 +36°C° 0 mm 4 mps 748 mmHg 26%
    14:00 +36°C° 0 mm 5 mps 748 mmHg 25%
    15:00 +36°C° 0 mm 5 mps 748 mmHg 25%
    16:00 +35°C° 0 mm 5 mps 748 mmHg 26%
    17:00 +35°C° 0 mm 5 mps 747 mmHg 28%
    18:00 +34°C° 0 mm 4 mps 747 mmHg 30%
    19:00 +33°C° 0 mm 3 mps 747 mmHg 34%
    20:00 +30°C° 0 mm 2 mps 748 mmHg 38%
    21:00 +29°C° 0 mm 1 mps 748 mmHg 42%
    22:00 +28°C° 0 mm 1 mps 748 mmHg 45%
    23:00 +27°C° 0 mm 1 mps 748 mmHg 47%

    Tomorrow, 23 June, Saturday

    Time Temperature Precipitation Wind Pressure Humidity
    00:00 +27°C° 0 mm 1 mps 748 mmHg 49%
    01:00 +26°C° 0 mm 1 mps 748 mmHg 51%
    02:00 +26°C° 0 mm 1 mps 748 mmHg 52%
    03:00 +25°C° 0 mm 1 mps 748 mmHg 53%
    04:00 +26°C° 0 mm 1 mps 748 mmHg 51%
    05:00 +26°C° 0 mm 1 mps 748 mmHg 48%
    06:00 +27°C° 0 mm 1 mps 748 mmHg 46%
    07:00 +29°C° 0 mm 2 mps 748 mmHg 40%
    08:00 +31°C° 0 mm 2 mps 749 mmHg 35%
    09:00 +34°C° 0 mm 3 mps 749 mmHg 29%
    10:00 +34°C° 0 mm 4 mps 749 mmHg 28%
    11:00 +35°C° 0 mm 5 mps 749 mmHg 27%
    12:00 +36°C° 0 mm 6 mps 748 mmHg 26%
    13:00 +36°C° 0 mm 6 mps 748 mmHg 28%
    14:00 +36°C° 0 mm 6 mps 748 mmHg 29%
    15:00 +36°C° 0 mm 6 mps 748 mmHg 30%
    16:00 +35°C° 0 mm 6 mps 747 mmHg 34%
    17:00 +34°C° 0 mm 6 mps 747 mmHg 37%
    18:00 +33°C° 0 mm 5 mps 747 mmHg 40%
    19:00 +30°C° 0 mm 4 mps 747 mmHg 46%
    20:00 +29°C° 0 mm 3 mps 748 mmHg 51%
    21:00 +28°C° 0 mm 2 mps 748 mmHg 56%
    22:00 +27°C° 0 mm 2 mps 748 mmHg 59%
    23:00 +27°C° 0 mm 2 mps 748 mmHg 62%

    Day after tomorrow, 24 June, Sunday

    Time Temperature Precipitation Wind Pressure Humidity
    00:00 +26°C° 0 mm 1 mps 748 mmHg 65%
    01:00 +26°C° 0 mm 1 mps 748 mmHg 67%
    02:00 +25°C° 0 mm 1 mps 748 mmHg 68%
    03:00 +25°C° 0 mm 1 mps 748 mmHg 70%
    04:00 +25°C° 0 mm 1 mps 748 mmHg 68%
    05:00 +25°C° 0 mm 1 mps 748 mmHg 65%
    06:00 +26°C° 0 mm 1 mps 748 mmHg 63%
    07:00 +27°C° 0 mm 2 mps 748 mmHg 56%
    08:00 +29°C° 0 mm 2 mps 748 mmHg 49%
    09:00 +31°C° 0 mm 2 mps 748 mmHg 41%
    10:00 +33°C° 0 mm 3 mps 748 mmHg 38%
    11:00 +35°C° 0 mm 4 mps 748 mmHg 34%
    12:00 +36°C° 0 mm 4 mps 747 mmHg 31%
    13:00 +36°C° 0 mm 4 mps 747 mmHg 31%
    14:00 +37°C° 0 mm 5 mps 747 mmHg 31%
    15:00 +37°C° 0 mm 5 mps 746 mmHg 31%
    16:00 +36°C° 0 mm 5 mps 746 mmHg 34%
    17:00 +35°C° 0 mm 5 mps 746 mmHg 37%
    18:00 +34°C° 0 mm 4 mps 746 mmHg 39%
    19:00 +33°C° 0 mm 4 mps 746 mmHg 44%
    20:00 +30°C° 0 mm 3 mps 746 mmHg 48%
    21:00 +29°C° 0 mm 2 mps 747 mmHg 53%
    22:00 +28°C° 0 mm 2 mps 747 mmHg 56%
    23:00 +28°C° 0 mm 2 mps 747 mmHg 58%

    25 June, Monday

    Time Temperature Precipitation Wind Pressure Humidity
    00:00 +27°C° 0 mm 2 mps 747 mmHg 61%
    01:00 +26°C° 0 mm 1 mps 747 mmHg 63%
    02:00 +26°C° 0 mm 1 mps 747 mmHg 65%
    03:00 +25°C° 0 mm 1 mps 747 mmHg 67%
    04:00 +26°C° 0 mm 1 mps 747 mmHg 65%
    05:00 +26°C° 0 mm 1 mps 747 mmHg 63%
    06:00 +26°C° 0 mm 1 mps 747 mmHg 61%
    07:00 +28°C° 0 mm 1 mps 747 mmHg 53%
    08:00 +30°C° 0 mm 2 mps 748 mmHg 46%
    09:00 +31°C° 0 mm 2 mps 748 mmHg 39%
    10:00 +34°C° 0 mm 3 mps 748 mmHg 36%
    11:00 +35°C° 0 mm 4 mps 748 mmHg 33%
    12:00 +36°C° 0 mm 4 mps 748 mmHg 30%
    13:00 +36°C° 0 mm 5 mps 748 mmHg 30%
    14:00 +36°C° 0 mm 5 mps 747 mmHg 30%
    15:00 +37°C° 0 mm 5 mps 747 mmHg 31%
    16:00 +36°C° 0 mm 5 mps 747 mmHg 33%
    17:00 +35°C° 0 mm 5 mps 747 mmHg 36%
    18:00 +34°C° 0 mm 4 mps 747 mmHg 38%
    19:00 +32°C° 0 mm 4 mps 747 mmHg 43%
    20:00 +30°C° 0 mm 3 mps 748 mmHg 47%
    21:00 +29°C° 0 mm 3 mps 748 mmHg 52%
    22:00 +28°C° 0 mm 2 mps 748 mmHg 54%
    23:00 +27°C° 0 mm 2 mps 748 mmHg 56%

    26 June, Tuesday

    Time Temperature Precipitation Wind Pressure Humidity
    00:00 +27°C° 0 mm 2 mps 748 mmHg 59%
    01:00 +26°C° 0 mm 1 mps 748 mmHg 60%
    02:00 +26°C° 0 mm 1 mps 748 mmHg 62%
    03:00 +25°C° 0 mm 1 mps 748 mmHg 63%
    04:00 +25°C° 0 mm 1 mps 748 mmHg 61%
    05:00 +26°C° 0 mm 1 mps 748 mmHg 60%
    06:00 +26°C° 0 mm 1 mps 748 mmHg 58%
    07:00 +28°C° 0 mm 2 mps 748 mmHg 50%
    08:00 +29°C° 0 mm 2 mps 748 mmHg 43%
    09:00 +31°C° 0 mm 3 mps 748 mmHg 36%
    10:00 +33°C° 0 mm 3 mps 748 mmHg 33%
    11:00 +34°C° 0 mm 4 mps 748 mmHg 30%
    12:00 +36°C° 0 mm 4 mps 748 mmHg 27%
    13:00 +36°C° 0 mm 5 mps 748 mmHg 27%
    14:00 +36°C° 0 mm 5 mps 747 mmHg 28%
    15:00 +36°C° 0 mm 6 mps 747 mmHg 28%
    16:00 +35°C° 0 mm 5 mps 747 mmHg 31%
    17:00 +34°C° 0 mm 5 mps 747 mmHg 34%
    18:00 +33°C° 0 mm 5 mps 747 mmHg 37%
    19:00 +32°C° 0 mm 4 mps 747 mmHg 42%
    20:00 +29°C° 0 mm 3 mps 748 mmHg 47%
    21:00 +28°C° 0 mm 3 mps 748 mmHg 51%
    22:00 +27°C° 0.1 mm 2 mps 748 mmHg 54%
    23:00 +27°C° 0.1 mm 2 mps 748 mmHg 56%

    27 June, Wednesday

    Time Temperature Precipitation Wind Pressure Humidity
    00:00 +26°C° 0.1 mm 1 mps 748 mmHg 59%
    01:00 +26°C° 0 mm 1 mps 748 mmHg 61%
    02:00 +25°C° 0 mm 1 mps 748 mmHg 62%
    03:00 +25°C° 0 mm 1 mps 748 mmHg 64%
    04:00 +25°C° 0 mm 1 mps 748 mmHg 63%
    05:00 +25°C° 0 mm 1 mps 748 mmHg 62%
    06:00 +25°C° 0 mm 1 mps 748 mmHg 61%
    07:00 +27°C° 0 mm 2 mps 748 mmHg 56%
    08:00 +28°C° 0 mm 2 mps 748 mmHg 50%
    09:00 +30°C° 0 mm 3 mps 748 mmHg 44%
    10:00 +31°C° 0 mm 3 mps 748 mmHg 41%
    11:00 +33°C° 0 mm 4 mps 748 mmHg 37%
    12:00 +34°C° 0 mm 5 mps 748 mmHg 34%
    13:00 +34°C° 0 mm 5 mps 748 mmHg 34%
    14:00 +34°C° 0 mm 6 mps 747 mmHg 34%
    15:00 +35°C° 0 mm 6 mps 747 mmHg 34%
    16:00 +34°C° 0 mm 6 mps 747 mmHg 36%
    17:00 +32°C° 0 mm 5 mps 747 mmHg 39%
    18:00 +30°C° 0 mm 5 mps 747 mmHg 41%
    19:00 +29°C° 0 mm 4 mps 747 mmHg 45%
    20:00 +28°C° 0 mm 3 mps 748 mmHg 49%
    21:00 +27°C° 0 mm 2 mps 748 mmHg 53%
    22:00 +26°C° 0 mm 2 mps 748 mmHg 56%
    23:00 +26°C° 0 mm 2 mps 748 mmHg 58%
    Show more